sat.trackr.live / text

‹ back to catalog

STARLINK-33845

NORAD 63495 · 2025-071C

PAYLOAD ACTIVE UNKNOWN

§ Identity

Operator
Country
US
Launch date
2025-04-07
Launch site
AFWTR
Launch vehicle
Mass (kg)
RCS (m²)

Purposes: comms

External: N2YO · Heavens-Above · Gunter

§ Orbital elements

Epoch: 2026-05-24T17:25:46.977888Z

Period
94.11 min
Inclination
53.1586°
Eccentricity
0.0001229
Mean motion
15.30196711 rev/d
Perigee alt
474.4 km
Apogee alt
476.1 km
Semi-major
6,853.4 km
B*
2.9195e-4
RAAN
146.5857°
Arg perigee
83.4879°
Mean anomaly
276.6262°
Rev number
6,439

§ Raw data

STARLINK-338451 63495U 25071C   26144.72623817  .00008296  00000+0  29195-3 0  99982 63495  53.1586 146.5857 0001229  83.4879 276.6262 15.30196711 64393

JSON: /api/v1/satellites/63495 · /tle

For live sub-satellite position, see the globe view (requires WebGL).

§ Visibility from observer

Set your observer location to see the next 7 days of passes ≥ 10°. The values pass through the URL so the page stays shareable.

No JS? Fill the form by hand. The geolocation button needs JavaScript.